Time,TemperatureF,DewpointF,PressureIn,WindDirection,WindDirectionDegrees,WindSpeedMPH,WindSpeedGustMPH,Humidity,HourlyPrecipIn,Conditions,Clouds,dailyrainin,SoftwareType,DateUTC
2013-10-11 00:01:00,60.0,0.0,30.07,NW,315,0.0,7.0,0,0.00,,,0.00,VWS V14.01,2013-10-11 04:01:00,
2013-10-11 00:06:00,60.0,0.0,30.07,NW,315,0.0,4.0,0,0.00,,,0.00,VWS V14.01,2013-10-11 04:06:00,
2013-10-11 00:11:00,60.0,0.0,30.09,WNW,292,3.0,3.0,0,0.00,,,0.00,VWS V14.01,2013-10-11 04:11:00,
2013-10-11 00:16:00,60.0,0.0,30.09,WNW,292,2.0,5.0,0,0.00,,,0.00,VWS V14.01,2013-10-11 04:16:00,
2013-10-11 00:21:00,60.0,0.0,29.41,NNW,337,0.0,5.0,0,0.00,,,0.00,VWS V14.01,2013-10-11 04:21:00,
2013-10-11 00:26:00,60.0,0.0,29.41,West,270,3.0,7.0,0,0.00,,,0.00,VWS V14.01,2013-10-11 04:26:00,
2013-10-11 00:31:00,60.0,0.0,29.42,WNW,292,0.0,0.0,0,0.00,,,0.00,VWS V14.01,2013-10-11 04:31:00,
2013-10-11 00:36:00,60.0,0.0,29.42,WNW,292,0.0,5.0,0,0.00,,,0.00,VWS V14.01,2013-10-11 04:36:00,
2013-10-11 00:41:00,60.0,0.0,29.17,WSW,247,0.0,2.0,0,0.00,,,0.00,VWS V14.01,2013-10-11 04:41:00,
2013-10-11 00:46:00,60.0,0.0,29.17,WNW,292,0.0,4.0,0,0.00,,,0.00,VWS V14.01,2013-10-11 04:46:00,
2013-10-11 00:51:00,60.0,0.0,28.22,NW,315,0.0,3.0,0,0.00,,,0.00,VWS V14.01,2013-10-11 04:51:00,
2013-10-11 00:56:00,60.0,0.0,28.22,WNW,292,6.0,7.0,0,0.00,,,0.00,VWS V14.01,2013-10-11 04:56:00,
2013-10-11 01:01:00,60.0,0.0,27.77,NW,315,3.0,3.0,0,0.00,,,0.00,VWS V14.01,2013-10-11 05:01:00,
2013-10-11 01:06:00,60.0,0.0,27.77,NW,315,0.0,3.0,0,0.00,,,0.00,VWS V14.01,2013-10-11 05:06:00,
2013-10-11 01:11:00,60.0,0.0,28.01,NW,315,3.0,7.0,0,0.00,,,0.00,VWS V14.01,2013-10-11 05:11:00,
2013-10-11 01:16:00,60.0,0.0,28.01,NW,315,0.0,3.0,0,0.00,,,0.00,VWS V14.01,2013-10-11 05:16:00,
2013-10-11 01:21:00,60.0,0.0,27.37,WNW,292,3.0,6.0,0,0.00,,,0.00,VWS V14.01,2013-10-11 05:21:00,
2013-10-11 01:26:00,60.0,0.0,27.37,WNW,292,0.0,1.0,0,0.00,,,0.00,VWS V14.01,2013-10-11 05:26:00,
2013-10-11 01:31:00,60.0,0.0,26.32,WNW,292,5.0,7.0,0,0.00,,,0.00,VWS V14.01,2013-10-11 05:31:00,
2013-10-11 01:36:00,60.0,0.0,26.32,NNW,337,0.0,7.0,0,0.00,,,0.00,VWS V14.01,2013-10-11 05:36:00,
2013-10-11 01:41:00,60.0,0.0,25.01,WNW,292,5.0,5.0,0,0.00,,,0.00,VWS V14.01,2013-10-11 05:41:00,
2013-10-11 01:46:00,60.0,0.0,25.01,WNW,292,0.0,6.0,1,0.00,,,0.00,VWS V14.01,2013-10-11 05:46:00,
2013-10-11 01:51:00,60.0,0.0,24.52,West,270,0.0,6.0,1,0.00,,,0.00,VWS V14.01,2013-10-11 05:51:00,
2013-10-11 01:56:00,60.0,0.0,24.52,West,270,0.0,5.0,4,0.00,,,0.00,VWS V14.01,2013-10-11 05:56:00,
2013-10-11 02:01:00,60.0,0.0,24.67,West,270,0.0,3.0,1,0.00,,,0.00,VWS V14.01,2013-10-11 06:01:00,
2013-10-11 02:06:00,60.0,0.0,24.67,West,270,0.0,0.0,5,0.00,,,0.00,VWS V14.01,2013-10-11 06:06:00,
2013-10-11 02:11:00,60.0,0.0,24.31,West,270,0.0,5.0,3,0.00,,,0.00,VWS V14.01,2013-10-11 06:11:00,
2013-10-11 02:16:00,60.0,-4.3,24.31,West,270,2.0,2.0,7,0.00,,,0.00,VWS V14.01,2013-10-11 06:16:00,
2013-10-11 02:21:00,60.0,0.0,23.08,West,270,3.0,4.0,5,0.00,,,0.00,VWS V14.01,2013-10-11 06:21:00,
2013-10-11 02:26:00,59.0,2.5,23.08,West,270,8.0,10.0,10,0.00,,,0.00,VWS V14.01,2013-10-11 06:26:00,
2013-10-11 02:31:00,59.0,-5.0,23.05,WNW,292,0.0,5.0,7,0.00,,,0.00,VWS V14.01,2013-10-11 06:31:00,
2013-10-11 02:36:00,59.0,0.3,23.05,WNW,292,0.0,5.0,9,0.00,,,0.00,VWS V14.01,2013-10-11 06:36:00,
2013-10-11 02:41:00,60.0,-1.5,23.03,WNW,292,0.0,0.0,8,0.00,,,0.00,VWS V14.01,2013-10-11 06:41:00,
2013-10-11 02:46:00,60.0,3.3,23.03,West,270,0.0,0.0,10,0.00,,,0.00,VWS V14.01,2013-10-11 06:46:00,
2013-10-11 02:51:00,59.0,4.6,21.88,WNW,292,0.0,7.0,11,0.00,,,0.00,VWS V14.01,2013-10-11 06:51:00,
2013-10-11 02:56:00,59.0,2.5,21.88,WNW,292,0.0,5.0,10,0.00,,,0.00,VWS V14.01,2013-10-11 06:56:00,
2013-10-11 03:01:00,59.0,2.5,22.00,WNW,292,1.0,4.0,10,0.00,,,0.00,VWS V14.01,2013-10-11 07:01:00,
2013-10-11 03:06:00,59.0,4.6,22.00,WNW,292,4.0,8.0,11,0.00,,,0.00,VWS V14.01,2013-10-11 07:06:00,
2013-10-11 03:11:00,59.0,6.5,21.58,NW,315,0.0,7.0,12,0.00,,,0.00,VWS V14.01,2013-10-11 07:11:00,
2013-10-11 03:16:00,59.0,11.4,21.58,NNW,337,0.0,6.0,15,0.00,,,0.00,VWS V14.01,2013-10-11 07:16:00,
2013-10-11 03:21:00,59.0,16.8,20.95,NNW,337,1.0,1.0,19,0.00,,,0.00,VWS V14.01,2013-10-11 07:21:00,
2013-10-11 03:26:00,59.0,18.0,20.95,NNW,337,0.0,5.0,20,0.00,,,0.00,VWS V14.01,2013-10-11 07:26:00,
2013-10-11 03:31:00,60.0,7.3,20.64,NNW,337,0.0,0.0,12,0.00,,,0.00,VWS V14.01,2013-10-11 07:31:00,
2013-10-11 03:36:00,59.0,20.2,20.64,NNW,337,0.0,3.0,22,0.00,,,0.00,VWS V14.01,2013-10-11 07:36:00,
2013-10-11 03:41:00,59.0,16.8,20.88,NNW,337,0.0,0.0,19,0.00,,,0.00,VWS V14.01,2013-10-11 07:41:00,
2013-10-11 03:46:00,59.0,15.6,20.88,WNW,292,0.0,6.0,18,0.00,,,0.00,VWS V14.01,2013-10-11 07:46:00,
2013-10-11 03:51:00,59.0,14.3,20.24,NW,315,0.0,0.0,17,0.00,,,0.00,VWS V14.01,2013-10-11 07:51:00,
2013-10-11 03:56:00,59.0,26.0,20.24,NW,315,0.0,4.0,28,0.00,,,0.00,VWS V14.01,2013-10-11 07:56:00,
2013-10-11 04:01:00,59.0,20.2,20.36,WNW,292,3.0,3.0,22,0.00,,,0.00,VWS V14.01,2013-10-11 08:01:00,
2013-10-11 04:06:00,59.0,22.3,20.36,WNW,292,0.0,0.0,24,0.00,,,0.00,VWS V14.01,2013-10-11 08:06:00,
2013-10-11 04:11:00,59.0,16.8,20.15,NNW,337,0.0,8.0,19,0.00,,,0.00,VWS V14.01,2013-10-11 08:11:00,
2013-10-11 04:16:00,59.0,32.1,20.15,NNW,337,4.0,10.0,36,0.00,,,0.00,VWS V14.01,2013-10-11 08:16:00,
2013-10-11 04:21:00,59.0,26.8,19.92,WNW,292,0.0,5.0,29,0.00,,,0.00,VWS V14.01,2013-10-11 08:21:00,
2013-10-11 04:26:00,59.0,30.7,19.92,WNW,292,0.0,0.0,34,0.00,,,0.00,VWS V14.01,2013-10-11 08:26:00,
2013-10-11 04:31:00,59.0,14.3,19.81,NNW,337,0.0,4.0,17,0.00,,,0.00,VWS V14.01,2013-10-11 08:31:00,
2013-10-11 04:36:00,59.0,32.8,19.81,NNW,337,0.0,4.0,37,0.00,,,0.00,VWS V14.01,2013-10-11 08:36:00,
2013-10-11 04:41:00,59.0,20.2,19.46,WNW,292,7.0,8.0,22,0.00,,,0.00,VWS V14.01,2013-10-11 08:41:00,
2013-10-11 04:46:00,59.0,33.5,19.46,WNW,292,0.0,0.0,38,0.00,,,0.00,VWS V14.01,2013-10-11 08:46:00,
2013-10-11 04:51:00,59.0,22.3,19.41,NNW,337,0.0,6.0,24,0.00,,,0.00,VWS V14.01,2013-10-11 08:51:00,
2013-10-11 04:56:00,59.0,33.5,19.41,WNW,292,3.0,3.0,38,0.00,,,0.00,VWS V14.01,2013-10-11 08:56:00,
2013-10-11 05:01:00,59.0,22.3,19.29,NNW,337,0.0,0.0,24,0.00,,,0.00,VWS V14.01,2013-10-11 09:01:00,
2013-10-11 05:06:00,59.0,34.1,19.29,NNW,337,0.0,0.0,39,0.00,,,0.00,VWS V14.01,2013-10-11 09:06:00,
2013-10-11 05:11:00,59.0,24.2,19.10,NW,315,0.0,3.0,26,0.00,,,0.00,VWS V14.01,2013-10-11 09:11:00,
2013-10-11 05:16:00,59.0,34.1,19.10,NW,315,0.0,5.0,39,0.00,,,0.00,VWS V14.01,2013-10-11 09:16:00,
2013-10-11 05:21:00,59.0,29.2,18.97,NW,315,0.0,4.0,32,0.00,,,0.00,VWS V14.01,2013-10-11 09:21:00,
2013-10-11 05:26:00,59.0,34.1,18.97,NW,315,0.0,9.0,39,0.00,,,0.00,VWS V14.01,2013-10-11 09:26:00,
2013-10-11 05:31:00,59.0,30.0,18.84,NW,315,0.0,0.0,33,0.00,,,0.00,VWS V14.01,2013-10-11 09:31:00,
2013-10-11 05:36:00,59.0,34.1,18.84,NNW,337,0.0,0.0,39,0.00,,,0.00,VWS V14.01,2013-10-11 09:36:00,
2013-10-11 05:41:00,59.0,30.0,18.59,NW,315,0.0,4.0,33,0.00,,,0.00,VWS V14.01,2013-10-11 09:41:00,
2013-10-11 05:46:00,59.0,34.1,18.59,NW,315,4.0,4.0,39,0.00,,,0.00,VWS V14.01,2013-10-11 09:46:00,
2013-10-11 05:51:00,59.0,30.0,18.60,NW,315,0.0,6.0,33,0.00,,,0.00,VWS V14.01,2013-10-11 09:51:00,
2013-10-11 05:56:00,59.0,34.1,18.60,NNW,337,0.0,4.0,39,0.00,,,0.00,VWS V14.01,2013-10-11 09:56:00,
2013-10-11 06:01:00,59.0,30.7,18.24,NNW,337,0.0,6.0,34,0.00,,,0.00,VWS V14.01,2013-10-11 10:01:00,
2013-10-11 06:06:00,59.0,34.7,18.24,NNW,337,0.0,6.0,40,0.00,,,0.00,VWS V14.01,2013-10-11 10:06:00,
2013-10-11 06:11:00,59.0,30.7,18.25,NW,315,0.0,5.0,34,0.00,,,0.00,VWS V14.01,2013-10-11 10:11:00,
2013-10-11 06:17:00,59.0,34.7,18.25,WNW,292,0.0,4.0,40,0.00,,,0.00,VWS V14.01,2013-10-11 10:17:00,
2013-10-11 06:21:00,59.0,30.7,18.18,WNW,292,0.0,4.0,34,0.00,,,0.00,VWS V14.01,2013-10-11 10:21:00,
2013-10-11 06:26:00,59.0,34.7,18.18,WNW,292,0.0,0.0,40,0.00,,,0.00,VWS V14.01,2013-10-11 10:26:00,
2013-10-11 06:31:00,59.0,30.7,18.00,WNW,292,0.0,6.0,34,0.00,,,0.00,VWS V14.01,2013-10-11 10:31:00,
2013-10-11 06:36:00,59.0,34.7,18.00,WNW,292,0.0,0.0,40,0.00,,,0.00,VWS V14.01,2013-10-11 10:36:00,
2013-10-11 06:41:00,59.0,30.7,18.09,WNW,292,0.0,0.0,34,0.00,,,0.00,VWS V14.01,2013-10-11 10:41:00,
2013-10-11 06:46:00,59.0,34.7,18.09,WNW,292,0.0,5.0,40,0.00,,,0.00,VWS V14.01,2013-10-11 10:46:00,
2013-10-11 06:51:00,59.0,30.7,18.00,NW,315,7.0,7.0,34,0.00,,,0.00,VWS V14.01,2013-10-11 10:51:00,
2013-10-11 06:56:00,59.0,34.7,18.00,NNW,337,0.0,9.0,40,0.00,,,0.00,VWS V14.01,2013-10-11 10:56:00,
2013-10-11 07:01:00,59.0,30.7,17.79,NNW,337,0.0,0.0,34,0.00,,,0.00,VWS V14.01,2013-10-11 11:01:00,
2013-10-11 07:06:00,59.0,35.3,17.79,NNW,337,0.0,0.0,41,0.00,,,0.00,VWS V14.01,2013-10-11 11:06:00,
2013-10-11 07:11:00,59.0,30.7,17.85,NNW,337,0.0,7.0,34,0.00,,,0.00,VWS V14.01,2013-10-11 11:11:00,
2013-10-11 07:17:00,59.0,35.3,17.85,NNW,337,0.0,0.0,41,0.00,,,0.00,VWS V14.01,2013-10-11 11:17:00,
2013-10-11 07:22:00,59.0,30.7,17.82,NW,315,0.0,3.0,34,0.00,,,0.00,VWS V14.01,2013-10-11 11:22:00,
2013-10-11 07:27:00,59.0,35.3,17.82,NW,315,4.0,4.0,41,0.00,,,0.00,VWS V14.01,2013-10-11 11:27:00,
2013-10-11 07:32:00,59.0,30.7,17.74,NW,315,3.0,7.0,34,0.00,,,0.00,VWS V14.01,2013-10-11 11:32:00,
2013-10-11 07:37:00,59.0,35.3,17.74,NNW,337,0.0,0.0,41,0.00,,,0.00,VWS V14.01,2013-10-11 11:37:00,
2013-10-11 07:42:00,59.0,30.7,17.68,NNW,337,0.0,0.0,34,0.00,,,0.00,VWS V14.01,2013-10-11 11:42:00,
2013-10-11 07:47:00,59.0,35.3,17.68,WNW,292,0.0,6.0,41,0.00,,,0.00,VWS V14.01,2013-10-11 11:47:00,
2013-10-11 07:52:00,59.0,31.4,17.77,WNW,292,0.0,0.0,35,0.00,,,0.00,VWS V14.01,2013-10-11 11:52:00,
2013-10-11 07:57:00,59.0,35.3,17.77,WNW,292,0.0,0.0,41,0.00,,,0.00,VWS V14.01,2013-10-11 11:57:00,
2013-10-11 08:02:00,59.0,31.4,18.29,WNW,292,0.0,1.0,35,0.00,,,0.00,VWS V14.01,2013-10-11 12:02:00,
2013-10-11 08:07:00,59.0,34.1,18.29,NW,315,0.0,6.0,39,0.00,,,0.00,VWS V14.01,2013-10-11 12:07:00,
2013-10-11 08:12:00,60.0,15.1,20.75,NNW,337,0.0,7.0,17,0.00,,,0.00,VWS V14.01,2013-10-11 12:12:00,
2013-10-11 08:17:00,60.0,-1.5,20.75,WSW,247,0.0,1.0,5,0.00,,,0.00,VWS V14.01,2013-10-11 12:17:00,
2013-10-11 08:22:00,60.0,0.0,24.23,WSW,247,0.0,0.0,1,0.00,,,0.00,VWS V14.01,2013-10-11 12:22:00,
2013-10-11 08:27:00,60.0,0.0,24.23,WSW,247,5.0,6.0,0,0.00,,,0.00,VWS V14.01,2013-10-11 12:27:00,
2013-10-11 08:32:00,60.0,0.0,28.26,WSW,247,0.0,7.0,0,0.00,,,0.00,VWS V14.01,2013-10-11 12:32:00,
2013-10-11 08:37:00,60.0,0.0,28.26,WSW,247,0.0,0.0,0,0.00,,,0.00,VWS V14.01,2013-10-11 12:37:00,
2013-10-11 08:42:00,60.0,0.0,28.89,WSW,247,1.0,2.0,0,0.00,,,0.00,VWS V14.01,2013-10-11 12:42:00,
2013-10-11 08:47:00,60.0,0.0,28.89,WSW,247,0.0,0.0,0,0.00,,,0.00,VWS V14.01,2013-10-11 12:47:00,
2013-10-11 08:52:00,60.0,0.0,29.42,West,270,0.0,0.0,0,0.00,,,0.00,VWS V14.01,2013-10-11 12:52:00,
2013-10-11 08:57:00,60.0,0.0,29.42,WNW,292,0.0,0.0,0,0.00,,,0.00,VWS V14.01,2013-10-11 12:57:00,
2013-10-11 09:02:00,60.0,0.0,16.40,WNW,292,0.0,7.0,0,0.00,,,0.00,VWS V14.01,2013-10-11 13:02:00,
2013-10-11 09:07:00,60.0,0.0,16.40,WNW,292,0.0,5.0,0,0.00,,,0.00,VWS V14.01,2013-10-11 13:07:00,
2013-10-11 09:12:00,60.0,0.0,32.41,NW,315,0.0,6.0,0,0.00,,,0.00,VWS V14.01,2013-10-11 13:12:00,
2013-10-11 09:17:00,60.0,0.0,32.41,West,270,3.0,7.0,0,0.00,,,0.00,VWS V14.01,2013-10-11 13:17:00,
2013-10-11 09:23:00,60.0,0.0,32.41,NNW,337,4.0,5.0,0,0.00,,,0.00,VWS V14.01,2013-10-11 13:23:00,
2013-10-11 09:28:00,60.0,0.0,32.41,NW,315,1.0,5.0,0,0.00,,,0.00,VWS V14.01,2013-10-11 13:28:00,
2013-10-11 09:33:00,60.0,0.0,32.41,NW,315,0.0,9.0,0,0.00,,,0.00,VWS V14.01,2013-10-11 13:33:00,
2013-10-11 09:38:00,60.0,0.0,32.41,WNW,292,0.0,7.0,0,0.00,,,0.00,VWS V14.01,2013-10-11 13:38:00,
2013-10-11 09:43:00,61.0,0.0,32.41,NNW,337,0.0,9.0,0,0.00,,,0.00,VWS V14.01,2013-10-11 13:43:00,
2013-10-11 09:48:00,61.0,0.0,32.41,NW,315,5.0,6.0,0,0.00,,,0.00,VWS V14.01,2013-10-11 13:48:00,
2013-10-11 09:53:00,61.0,0.0,32.41,NNW,337,0.0,10.0,0,0.00,,,0.00,VWS V14.01,2013-10-11 13:53:00,
2013-10-11 09:58:00,61.0,0.0,32.41,WNW,292,0.0,9.0,0,0.00,,,0.00,VWS V14.01,2013-10-11 13:58:00,
2013-10-11 10:03:00,61.0,0.0,32.41,WNW,292,0.0,7.0,0,0.00,,,0.00,VWS V14.01,2013-10-11 14:03:00,
2013-10-11 10:08:00,61.0,0.0,32.41,NW,315,0.0,9.0,0,0.00,,,0.00,VWS V14.01,2013-10-11 14:08:00,
2013-10-11 10:13:00,61.0,0.0,32.41,NW,315,5.0,10.0,0,0.00,,,0.00,VWS V14.01,2013-10-11 14:13:00,
2013-10-11 10:18:00,61.0,0.0,32.41,NNW,337,0.0,7.0,0,0.00,,,0.00,VWS V14.01,2013-10-11 14:18:00,
2013-10-11 10:23:00,61.0,0.0,32.41,NNW,337,0.0,9.0,0,0.00,,,0.00,VWS V14.01,2013-10-11 14:23:00,
2013-10-11 10:28:00,61.0,0.0,32.41,WNW,292,4.0,8.0,0,0.00,,,0.00,VWS V14.01,2013-10-11 14:28:00,
2013-10-11 10:33:00,61.0,0.0,32.41,WNW,292,0.0,8.0,0,0.00,,,0.00,VWS V14.01,2013-10-11 14:33:00,
2013-10-11 10:38:00,61.0,0.0,32.41,NNW,337,0.0,7.0,0,0.00,,,0.00,VWS V14.01,2013-10-11 14:38:00,
2013-10-11 10:43:00,61.0,0.0,32.41,NNW,337,7.0,9.0,0,0.00,,,0.00,VWS V14.01,2013-10-11 14:43:00,
2013-10-11 10:48:00,61.0,0.0,32.41,NNW,337,4.0,9.0,0,0.00,,,0.00,VWS V14.01,2013-10-11 14:48:00,
2013-10-11 10:53:00,61.0,0.0,32.41,NW,315,5.0,10.0,0,0.00,,,0.00,VWS V14.01,2013-10-11 14:53:00,
2013-10-11 10:58:00,62.0,0.0,32.41,NNW,337,0.0,7.0,0,0.00,,,0.00,VWS V14.01,2013-10-11 14:58:00,
2013-10-11 11:03:00,62.0,0.0,32.41,WNW,292,6.0,8.0,0,0.00,,,0.00,VWS V14.01,2013-10-11 15:03:00,
2013-10-11 11:08:00,62.0,0.0,32.41,WNW,292,0.0,7.0,0,0.00,,,0.00,VWS V14.01,2013-10-11 15:08:00,
2013-10-11 11:13:00,62.0,0.0,32.41,NNW,337,8.0,8.0,0,0.00,,,0.00,VWS V14.01,2013-10-11 15:13:00,
2013-10-11 11:18:00,62.0,0.0,32.41,NNW,337,5.0,9.0,0,0.00,,,0.00,VWS V14.01,2013-10-11 15:18:00,
2013-10-11 11:23:00,62.0,0.0,32.41,WNW,292,0.0,6.0,0,0.00,,,0.00,VWS V14.01,2013-10-11 15:23:00,
2013-10-11 11:28:00,62.0,0.0,32.41,WNW,292,7.0,9.0,0,0.00,,,0.00,VWS V14.01,2013-10-11 15:28:00,
2013-10-11 11:33:00,62.0,0.0,32.41,WNW,292,5.0,7.0,0,0.00,,,0.00,VWS V14.01,2013-10-11 15:33:00,
2013-10-11 11:38:00,62.0,0.0,32.41,WNW,292,3.0,8.0,0,0.00,,,0.00,VWS V14.01,2013-10-11 15:38:00,
2013-10-11 11:43:00,62.0,0.0,32.41,NW,315,0.0,8.0,0,0.00,,,0.00,VWS V14.01,2013-10-11 15:43:00,
2013-10-11 11:48:00,62.0,0.0,32.41,NNW,337,5.0,10.0,0,0.00,,,0.00,VWS V14.01,2013-10-11 15:48:00,
2013-10-11 11:53:00,62.0,0.0,32.41,NNW,337,5.0,9.0,0,0.00,,,0.00,VWS V14.01,2013-10-11 15:53:00,
2013-10-11 11:58:00,63.0,0.0,32.41,NNW,337,4.0,8.0,0,0.00,,,0.00,VWS V14.01,2013-10-11 15:58:00,
2013-10-11 12:03:00,63.0,0.0,32.41,NW,315,3.0,9.0,0,0.00,,,0.00,VWS V14.01,2013-10-11 16:03:00,
2013-10-11 12:08:00,63.0,0.0,32.41,NNW,337,3.0,9.0,0,0.00,,,0.00,VWS V14.01,2013-10-11 16:08:00,
2013-10-11 12:13:00,63.0,0.0,32.41,NNW,337,2.0,10.0,0,0.00,,,0.00,VWS V14.01,2013-10-11 16:13:00,
2013-10-11 12:18:00,63.0,0.0,32.41,NNW,337,4.0,9.0,0,0.00,,,0.00,VWS V14.01,2013-10-11 16:18:00,
2013-10-11 12:23:00,63.0,0.0,32.41,NW,315,0.0,7.0,0,0.00,,,0.00,VWS V14.01,2013-10-11 16:23:00,
2013-10-11 12:28:00,63.0,0.0,32.41,NNW,337,6.0,9.0,0,0.00,,,0.00,VWS V14.01,2013-10-11 16:28:00,
2013-10-11 12:33:00,63.0,0.0,32.41,NNW,337,5.0,9.0,0,0.00,,,0.00,VWS V14.01,2013-10-11 16:33:00,
2013-10-11 12:38:00,63.0,0.0,32.41,NNW,337,7.0,13.0,0,0.00,,,0.00,VWS V14.01,2013-10-11 16:38:00,
2013-10-11 12:43:00,63.0,0.0,32.40,NNW,337,4.0,9.0,0,0.00,,,0.00,VWS V14.01,2013-10-11 16:43:00,
2013-10-11 12:48:00,63.0,0.0,32.40,NW,315,0.0,11.0,0,0.00,,,0.00,VWS V14.01,2013-10-11 16:48:00,
2013-10-11 12:53:00,63.0,0.0,32.40,NNW,337,5.0,9.0,0,0.00,,,0.00,VWS V14.01,2013-10-11 16:53:00,
2013-10-11 12:58:00,63.0,0.0,32.40,NW,315,0.0,10.0,0,0.00,,,0.00,VWS V14.01,2013-10-11 16:58:00,
2013-10-11 13:03:00,64.0,0.0,32.40,NNW,337,7.0,9.0,0,0.00,,,0.00,VWS V14.01,2013-10-11 17:03:00,
2013-10-11 13:08:00,64.0,0.0,32.40,NNW,337,6.0,12.0,0,0.00,,,0.00,VWS V14.01,2013-10-11 17:08:00,
2013-10-11 13:13:00,63.0,0.0,32.40,WNW,292,7.0,13.0,0,0.00,,,0.00,VWS V14.01,2013-10-11 17:13:00,
2013-10-11 13:18:00,63.0,0.0,32.40,WNW,292,8.0,12.0,0,0.00,,,0.00,VWS V14.01,2013-10-11 17:18:00,
2013-10-11 13:23:00,63.0,0.0,32.41,NNW,337,3.0,8.0,0,0.00,,,0.00,VWS V14.01,2013-10-11 17:23:00,
2013-10-11 13:28:00,63.0,0.0,32.41,NNW,337,5.0,8.0,0,0.00,,,0.00,VWS V14.01,2013-10-11 17:28:00,
2013-10-11 13:33:00,63.0,0.0,32.41,NW,315,6.0,12.0,0,0.00,,,0.00,VWS V14.01,2013-10-11 17:33:00,
2013-10-11 13:38:00,64.0,0.0,32.41,NNW,337,7.0,11.0,0,0.00,,,0.00,VWS V14.01,2013-10-11 17:38:00,
2013-10-11 13:43:00,64.0,0.0,32.41,NNW,337,6.0,12.0,0,0.00,,,0.00,VWS V14.01,2013-10-11 17:43:00,
2013-10-11 13:48:00,64.0,0.0,32.41,NNW,337,4.0,9.0,0,0.00,,,0.00,VWS V14.01,2013-10-11 17:48:00,
2013-10-11 13:53:00,64.0,0.0,31.24,NNW,337,6.0,10.0,0,0.00,,,0.00,VWS V14.01,2013-10-11 17:53:00,
2013-10-11 13:58:00,64.0,0.0,31.24,NNW,337,6.0,9.0,0,0.00,,,0.00,VWS V14.01,2013-10-11 17:58:00,
2013-10-11 14:03:00,64.0,0.0,30.95,NNW,337,9.0,10.0,0,0.00,,,0.00,VWS V14.01,2013-10-11 18:03:00,
2013-10-11 14:08:00,64.0,0.0,30.95,NNW,337,4.0,9.0,0,0.00,,,0.00,VWS V14.01,2013-10-11 18:08:00,
2013-10-11 14:13:00,65.0,0.0,30.73,NNW,337,0.0,5.0,0,0.00,,,0.00,VWS V14.01,2013-10-11 18:13:00,
2013-10-11 14:18:00,65.0,0.0,30.73,NNW,337,0.0,11.0,0,0.00,,,0.00,VWS V14.01,2013-10-11 18:18:00,
2013-10-11 14:23:00,64.0,0.0,30.83,WNW,292,3.0,6.0,0,0.00,,,0.00,VWS V14.01,2013-10-11 18:23:00,
2013-10-11 14:28:00,64.0,0.0,30.83,NNW,337,4.0,9.0,0,0.00,,,0.00,VWS V14.01,2013-10-11 18:28:00,
2013-10-11 14:33:00,64.0,0.0,31.04,NNW,337,4.0,9.0,0,0.00,,,0.00,VWS V14.01,2013-10-11 18:33:00,
2013-10-11 14:38:00,65.0,0.0,31.04,NNW,337,5.0,9.0,0,0.00,,,0.00,VWS V14.01,2013-10-11 18:38:00,
2013-10-11 14:43:00,65.0,0.0,30.63,NNW,337,6.0,10.0,0,0.00,,,0.00,VWS V14.01,2013-10-11 18:43:00,
2013-10-11 14:48:00,65.0,0.0,30.63,NNW,337,6.0,10.0,0,0.00,,,0.00,VWS V14.01,2013-10-11 18:48:00,
2013-10-11 14:53:00,65.0,0.0,31.01,NNW,337,3.0,12.0,0,0.00,,,0.00,VWS V14.01,2013-10-11 18:53:00,
2013-10-11 14:58:00,65.0,0.0,31.01,NW,315,0.0,5.0,0,0.00,,,0.00,VWS V14.01,2013-10-11 18:58:00,
2013-10-11 15:03:00,65.0,0.0,30.59,NNW,337,4.0,6.0,0,0.00,,,0.00,VWS V14.01,2013-10-11 19:03:00,
2013-10-11 15:08:00,65.0,0.0,30.59,NNW,337,9.0,9.0,0,0.00,,,0.00,VWS V14.01,2013-10-11 19:08:00,
2013-10-11 15:13:00,65.0,0.0,30.58,North,360,8.0,13.0,0,0.00,,,0.00,VWS V14.01,2013-10-11 19:13:00,
2013-10-11 15:18:00,65.0,0.0,30.58,WNW,292,0.0,10.0,0,0.00,,,0.00,VWS V14.01,2013-10-11 19:18:00,
2013-10-11 15:23:00,65.0,0.0,30.53,NNW,337,4.0,11.0,0,0.00,,,0.00,VWS V14.01,2013-10-11 19:23:00,
2013-10-11 15:28:00,65.0,0.0,30.53,NNW,337,3.0,8.0,0,0.00,,,0.00,VWS V14.01,2013-10-11 19:28:00,
2013-10-11 15:33:00,65.0,0.0,30.58,NW,315,0.0,5.0,0,0.00,,,0.00,VWS V14.01,2013-10-11 19:33:00,
2013-10-11 15:38:00,65.0,0.0,30.58,WNW,292,0.0,5.0,0,0.00,,,0.00,VWS V14.01,2013-10-11 19:38:00,
2013-10-11 15:43:00,65.0,0.0,30.56,WNW,292,0.0,0.0,0,0.00,,,0.00,VWS V14.01,2013-10-11 19:43:00,
2013-10-11 15:48:00,65.0,0.0,30.56,WNW,292,0.0,0.0,0,0.00,,,0.00,VWS V14.01,2013-10-11 19:48:00,
2013-10-11 15:53:00,65.0,0.0,30.61,WNW,292,0.0,4.0,0,0.00,,,0.00,VWS V14.01,2013-10-11 19:53:00,
2013-10-11 15:58:00,65.0,0.0,30.61,WNW,292,0.0,6.0,0,0.00,,,0.00,VWS V14.01,2013-10-11 19:58:00,
2013-10-11 16:03:00,65.0,0.0,30.59,WNW,292,0.0,5.0,0,0.00,,,0.00,VWS V14.01,2013-10-11 20:03:00,
2013-10-11 16:08:00,65.0,0.0,30.59,NW,315,0.0,6.0,0,0.00,,,0.00,VWS V14.01,2013-10-11 20:08:00,
2013-10-11 16:13:00,65.0,0.0,30.58,WNW,292,6.0,9.0,0,0.00,,,0.00,VWS V14.01,2013-10-11 20:13:00,
2013-10-11 16:17:00,65.0,0.0,30.58,NW,315,2.0,9.0,0,0.00,,,0.00,VWS V14.01,2013-10-11 20:17:00,
2013-10-11 16:22:00,65.0,0.0,30.71,NW,315,0.0,4.0,0,0.00,,,0.00,VWS V14.01,2013-10-11 20:22:00,
2013-10-11 16:27:00,65.0,0.0,30.71,NW,315,0.0,7.0,0,0.00,,,0.00,VWS V14.01,2013-10-11 20:27:00,
2013-10-11 16:33:00,65.0,0.0,30.68,WNW,292,0.0,8.0,0,0.00,,,0.00,VWS V14.01,2013-10-11 20:33:00,
2013-10-11 16:38:00,65.0,0.0,30.68,WNW,292,0.0,2.0,0,0.00,,,0.00,VWS V14.01,2013-10-11 20:38:00,
2013-10-11 16:43:00,65.0,0.0,30.67,NNW,337,3.0,4.0,0,0.00,,,0.00,VWS V14.01,2013-10-11 20:43:00,
2013-10-11 16:48:00,65.0,0.0,30.67,NNW,337,0.0,6.0,0,0.00,,,0.00,VWS V14.01,2013-10-11 20:48:00,
2013-10-11 16:53:00,65.0,0.0,30.73,NNW,337,4.0,8.0,0,0.00,,,0.00,VWS V14.01,2013-10-11 20:53:00,
2013-10-11 16:58:00,65.0,0.0,30.73,NNW,337,1.0,9.0,0,0.00,,,0.00,VWS V14.01,2013-10-11 20:58:00,
2013-10-11 17:03:00,65.0,0.0,30.72,West,270,0.0,9.0,0,0.00,,,0.00,VWS V14.01,2013-10-11 21:03:00,
2013-10-11 17:08:00,65.0,0.0,30.72,NNW,337,0.0,8.0,0,0.00,,,0.00,VWS V14.01,2013-10-11 21:08:00,
2013-10-11 17:13:00,65.0,0.0,30.79,NW,315,0.0,7.0,0,0.00,,,0.00,VWS V14.01,2013-10-11 21:13:00,
2013-10-11 17:18:00,65.0,0.0,30.79,WNW,292,0.0,6.0,0,0.00,,,0.00,VWS V14.01,2013-10-11 21:18:00,
2013-10-11 17:23:00,65.0,0.0,32.40,NNW,337,0.0,5.0,0,0.00,,,0.00,VWS V14.01,2013-10-11 21:23:00,
2013-10-11 17:28:00,65.0,0.0,32.40,NNW,337,0.0,6.0,0,0.00,,,0.00,VWS V14.01,2013-10-11 21:28:00,
2013-10-11 17:33:00,65.0,0.0,32.40,NNW,337,3.0,5.0,0,0.00,,,0.00,VWS V14.01,2013-10-11 21:33:00,
2013-10-11 17:38:00,65.0,0.0,32.40,WNW,292,0.0,5.0,0,0.00,,,0.00,VWS V14.01,2013-10-11 21:38:00,
2013-10-11 17:43:00,65.0,0.0,32.40,WNW,292,0.0,2.0,0,0.00,,,0.00,VWS V14.01,2013-10-11 21:43:00,
2013-10-11 17:48:00,65.0,0.0,32.40,NW,315,0.0,4.0,0,0.00,,,0.00,VWS V14.01,2013-10-11 21:48:00,
2013-10-11 17:53:00,65.0,0.0,32.40,NNW,337,0.0,5.0,0,0.00,,,0.00,VWS V14.01,2013-10-11 21:53:00,
2013-10-11 17:58:00,65.0,0.0,32.40,WNW,292,0.0,1.0,0,0.00,,,0.00,VWS V14.01,2013-10-11 21:58:00,
2013-10-11 18:03:00,65.0,0.0,32.40,WNW,292,0.0,0.0,0,0.00,,,0.00,VWS V14.01,2013-10-11 22:03:00,
2013-10-11 18:08:00,65.0,0.0,32.40,WNW,292,0.0,0.0,0,0.00,,,0.00,VWS V14.01,2013-10-11 22:08:00,
2013-10-11 18:13:00,65.0,0.0,32.40,WNW,292,0.0,0.0,0,0.00,,,0.00,VWS V14.01,2013-10-11 22:13:00,
2013-10-11 18:18:00,65.0,0.0,32.40,WNW,292,0.0,0.0,0,0.00,,,0.00,VWS V14.01,2013-10-11 22:18:00,
2013-10-11 18:23:00,65.0,0.0,32.41,WNW,292,0.0,0.0,0,0.00,,,0.00,VWS V14.01,2013-10-11 22:23:00,
2013-10-11 18:28:00,65.0,0.0,32.41,WNW,292,0.0,0.0,0,0.00,,,0.00,VWS V14.01,2013-10-11 22:28:00,
2013-10-11 18:33:00,64.0,0.0,32.41,WNW,292,0.0,0.0,0,0.00,,,0.00,VWS V14.01,2013-10-11 22:33:00,
2013-10-11 18:38:00,64.0,0.0,32.41,WNW,292,0.0,0.0,0,0.00,,,0.00,VWS V14.01,2013-10-11 22:38:00,
2013-10-11 18:43:00,64.0,0.0,32.41,WNW,292,0.0,0.0,0,0.00,,,0.00,VWS V14.01,2013-10-11 22:43:00,
2013-10-11 18:48:00,64.0,0.0,32.41,WNW,292,0.0,0.0,0,0.00,,,0.00,VWS V14.01,2013-10-11 22:48:00,
2013-10-11 18:53:00,64.0,0.0,32.41,WNW,292,0.0,0.0,0,0.00,,,0.00,VWS V14.01,2013-10-11 22:53:00,
2013-10-11 18:58:00,64.0,0.0,32.41,WNW,292,0.0,0.0,0,0.00,,,0.00,VWS V14.01,2013-10-11 22:58:00,
2013-10-11 19:03:00,64.0,0.0,32.41,WNW,292,0.0,0.0,0,0.00,,,0.00,VWS V14.01,2013-10-11 23:03:00,
2013-10-11 19:08:00,64.0,0.0,32.41,WNW,292,0.0,0.0,0,0.00,,,0.00,VWS V14.01,2013-10-11 23:08:00,
2013-10-11 19:13:00,64.0,0.0,32.41,WNW,292,0.0,0.0,0,0.00,,,0.00,VWS V14.01,2013-10-11 23:13:00,
2013-10-11 19:18:00,64.0,0.0,32.41,WNW,292,0.0,0.0,0,0.00,,,0.00,VWS V14.01,2013-10-11 23:18:00,
2013-10-11 19:23:00,64.0,0.0,32.41,WNW,292,0.0,0.0,0,0.00,,,0.00,VWS V14.01,2013-10-11 23:23:00,
2013-10-11 19:28:00,64.0,0.0,32.41,WNW,292,0.0,0.0,0,0.00,,,0.00,VWS V14.01,2013-10-11 23:28:00,
2013-10-11 19:33:00,64.0,0.0,32.41,WNW,292,0.0,0.0,0,0.00,,,0.00,VWS V14.01,2013-10-11 23:33:00,
2013-10-11 19:38:00,64.0,0.0,32.41,WNW,292,0.0,0.0,0,0.00,,,0.00,VWS V14.01,2013-10-11 23:38:00,
2013-10-11 19:43:00,64.0,0.0,32.41,WNW,292,0.0,0.0,0,0.00,,,0.00,VWS V14.01,2013-10-11 23:43:00,
2013-10-11 19:48:00,64.0,0.0,32.41,WNW,292,0.0,0.0,0,0.00,,,0.00,VWS V14.01,2013-10-11 23:48:00,
2013-10-11 19:53:00,64.0,0.0,32.41,WNW,292,0.0,0.0,0,0.00,,,0.00,VWS V14.01,2013-10-11 23:53:00,
2013-10-11 19:58:00,64.0,0.0,32.41,WNW,292,0.0,0.0,0,0.00,,,0.00,VWS V14.01,2013-10-11 23:58:00,
2013-10-11 20:03:00,64.0,0.0,32.41,WNW,292,0.0,2.0,0,0.00,,,0.00,VWS V14.01,2013-10-12 00:03:00,
2013-10-11 20:08:00,64.0,0.0,32.41,WNW,292,0.0,0.0,0,0.00,,,0.00,VWS V14.01,2013-10-12 00:08:00,
2013-10-11 20:13:00,64.0,0.0,32.41,WNW,292,0.0,0.0,0,0.00,,,0.00,VWS V14.01,2013-10-12 00:13:00,
2013-10-11 20:18:00,64.0,0.0,32.41,WNW,292,0.0,0.0,0,0.00,,,0.00,VWS V14.01,2013-10-12 00:18:00,
2013-10-11 20:23:00,64.0,0.0,32.41,NNW,337,0.0,6.0,0,0.00,,,0.00,VWS V14.01,2013-10-12 00:23:00,
2013-10-11 20:28:00,64.0,0.0,32.41,NNW,337,0.0,0.0,0,0.00,,,0.00,VWS V14.01,2013-10-12 00:28:00,
2013-10-11 20:33:00,64.0,0.0,32.41,NNW,337,0.0,7.0,0,0.00,,,0.00,VWS V14.01,2013-10-12 00:33:00,
2013-10-11 20:38:00,64.0,0.0,32.41,NNW,337,0.0,0.0,0,0.00,,,0.00,VWS V14.01,2013-10-12 00:38:00,
2013-10-11 20:43:00,64.0,0.0,32.41,NNW,337,0.0,0.0,0,0.00,,,0.00,VWS V14.01,2013-10-12 00:43:00,
2013-10-11 20:48:00,64.0,0.0,32.41,NNW,337,0.0,3.0,0,0.00,,,0.00,VWS V14.01,2013-10-12 00:48:00,
2013-10-11 20:53:00,64.0,0.0,32.41,NW,315,0.0,0.0,0,0.00,,,0.00,VWS V14.01,2013-10-12 00:53:00,
2013-10-11 20:58:00,64.0,0.0,32.41,NW,315,0.0,1.0,0,0.00,,,0.00,VWS V14.01,2013-10-12 00:58:00,
2013-10-11 21:03:00,64.0,0.0,32.41,NW,315,0.0,0.0,0,0.00,,,0.00,VWS V14.01,2013-10-12 01:03:00,
2013-10-11 21:08:00,64.0,0.0,32.41,NW,315,0.0,0.0,0,0.00,,,0.00,VWS V14.01,2013-10-12 01:08:00,
2013-10-11 21:13:00,64.0,0.0,32.41,NNW,337,0.0,6.0,0,0.00,,,0.00,VWS V14.01,2013-10-12 01:13:00,
2013-10-11 21:18:00,64.0,0.0,32.41,NNW,337,0.0,0.0,0,0.00,,,0.00,VWS V14.01,2013-10-12 01:18:00,
2013-10-11 21:23:00,64.0,0.0,32.41,NNW,337,0.0,4.0,0,0.00,,,0.00,VWS V14.01,2013-10-12 01:23:00,
2013-10-11 21:28:00,64.0,0.0,32.41,NNW,337,0.0,0.0,0,0.00,,,0.00,VWS V14.01,2013-10-12 01:28:00,
2013-10-11 21:33:00,64.0,0.0,32.41,NNW,337,0.0,1.0,0,0.00,,,0.00,VWS V14.01,2013-10-12 01:33:00,
2013-10-11 21:38:00,64.0,0.0,32.41,NW,315,0.0,6.0,0,0.00,,,0.00,VWS V14.01,2013-10-12 01:38:00,
2013-10-11 21:43:00,64.0,0.0,32.24,NW,315,0.0,3.0,0,0.00,,,0.00,VWS V14.01,2013-10-12 01:43:00,
2013-10-11 21:48:00,64.0,0.0,32.24,NW,315,0.0,0.0,0,0.00,,,0.00,VWS V14.01,2013-10-12 01:48:00,
2013-10-11 21:53:00,64.0,0.0,26.52,NW,315,0.0,0.0,0,0.00,,,0.00,VWS V14.01,2013-10-12 01:53:00,
2013-10-11 21:58:00,64.0,0.0,26.52,WNW,292,0.0,0.0,0,0.00,,,0.00,VWS V14.01,2013-10-12 01:58:00,
2013-10-11 22:03:00,64.0,0.0,26.92,WNW,292,0.0,0.0,0,0.00,,,0.00,VWS V14.01,2013-10-12 02:03:00,
2013-10-11 22:08:00,64.0,0.0,26.92,WNW,292,0.0,0.0,0,0.00,,,0.00,VWS V14.01,2013-10-12 02:08:00,
2013-10-11 22:13:00,64.0,0.0,30.14,WNW,292,0.0,0.0,0,0.00,,,0.00,VWS V14.01,2013-10-12 02:13:00,
2013-10-11 22:18:00,64.0,0.0,30.14,WNW,292,0.0,0.0,0,0.00,,,0.00,VWS V14.01,2013-10-12 02:18:00,
2013-10-11 22:23:00,64.0,0.0,28.51,NW,315,2.0,3.0,0,0.00,,,0.00,VWS V14.01,2013-10-12 02:23:00,
2013-10-11 22:24:00,64.0,0.0,28.51,NW,315,0.0,0.0,0,0.00,,,0.00,VWS V14.01,2013-10-12 02:24:00,
2013-10-11 22:28:00,64.0,0.0,28.51,NW,315,0.0,2.0,0,0.00,,,0.00,VWS V14.01,2013-10-12 02:28:00,
2013-10-11 22:33:00,64.0,0.0,30.46,NW,315,0.0,3.0,0,0.00,,,0.00,VWS V14.01,2013-10-12 02:33:00,
2013-10-11 22:38:00,64.0,0.0,30.46,NW,315,0.0,0.0,0,0.00,,,0.00,VWS V14.01,2013-10-12 02:38:00,
2013-10-11 22:43:00,64.0,0.0,30.39,NW,315,0.0,0.0,0,0.00,,,0.00,VWS V14.01,2013-10-12 02:43:00,
2013-10-11 22:48:00,64.0,0.0,30.39,NW,315,0.0,0.0,0,0.00,,,0.00,VWS V14.01,2013-10-12 02:48:00,
2013-10-11 22:53:00,64.0,0.0,30.04,NW,315,0.0,0.0,0,0.00,,,0.00,VWS V14.01,2013-10-12 02:53:00,
2013-10-11 22:58:00,64.0,0.0,30.04,NW,315,3.0,3.0,0,0.00,,,0.00,VWS V14.01,2013-10-12 02:58:00,
2013-10-11 23:03:00,64.0,0.0,29.68,NW,315,0.0,4.0,0,0.00,,,0.00,VWS V14.01,2013-10-12 03:03:00,
2013-10-11 23:08:00,64.0,0.0,29.68,NW,315,0.0,0.0,0,0.00,,,0.00,VWS V14.01,2013-10-12 03:08:00,
2013-10-11 23:13:00,64.0,0.0,29.32,NW,315,0.0,0.0,0,0.00,,,0.00,VWS V14.01,2013-10-12 03:13:00,
2013-10-11 23:17:00,64.0,0.0,29.32,NW,315,0.0,1.0,0,0.00,,,0.00,VWS V14.01,2013-10-12 03:17:00,
2013-10-11 23:18:00,64.0,0.0,29.32,NW,315,0.0,0.0,0,0.00,,,0.00,VWS V14.01,2013-10-12 03:18:00,
2013-10-11 23:23:00,64.0,0.0,28.92,NW,315,0.0,0.0,0,0.00,,,0.00,VWS V14.01,2013-10-12 03:23:00,
2013-10-11 23:28:00,64.0,0.0,28.92,NW,315,0.0,0.0,0,0.00,,,0.00,VWS V14.01,2013-10-12 03:28:00,
2013-10-11 23:33:00,64.0,0.0,28.47,NW,315,0.0,0.0,0,0.00,,,0.00,VWS V14.01,2013-10-12 03:33:00,
2013-10-11 23:38:00,64.0,0.0,28.47,NW,315,0.0,0.0,0,0.00,,,0.00,VWS V14.01,2013-10-12 03:38:00,
2013-10-11 23:43:00,64.0,0.0,27.88,NW,315,0.0,0.0,0,0.00,,,0.00,VWS V14.01,2013-10-12 03:43:00,
2013-10-11 23:48:00,64.0,0.0,27.88,NW,315,0.0,0.0,0,0.00,,,0.00,VWS V14.01,2013-10-12 03:48:00,
2013-10-11 23:53:00,64.0,0.0,27.03,NW,315,0.0,0.0,0,0.00,,,0.00,VWS V14.01,2013-10-12 03:53:00,
2013-10-11 23:58:00,64.0,0.0,27.03,NW,315,0.0,0.0,0,0.00,,,0.00,VWS V14.01,2013-10-12 03:58:00,